Location: Clermont
(50.2608°N, 4.3172°E)
Time: 03:45:32
(UTC+00:00)

Cosmos 1869 Rocket - Pass Details

Date: 13 August 2020
Orbit: 604 x 634 km, 82.5° (Epoch: 25 September)

Event Time Altitude Azimuth Distance (km) Brightness Sun altitude
Exits shadow 22:00:57 27° 222° (SW) 1,215 4.8 -21.3°
Maximum altitude 22:03:06 51° 284° (WNW) 799 4.3 -21.5°
Drops below altitude 10° 22:07:30 10° 1° (N) 2,027 7.1 -21.8°
Sets 22:09:49 0° 7° (N) 2,943 8.0 -22.0°
